Regional Weather Roundup
Issued by NWS

Home | Current Version | Previous Version | Graphics & Text | Print | Product List | Glossary Off
Versions: 1 2 3 4 5 6 7 8 9 10 11 12 13 14 15 16 17 18 19 20 21 22 23 24 25 26 27 28 29 30 31 32 33 34 35 36 37 38 39 40 41 42 43 44 45 46 47 48 49 50

000
ASUS43 KLSX 290310
RWRMO

WEATHER SUMMARY FOR MISSOURI
NATIONAL WEATHER SERVICE SPRINGFIELD MO
1000 PM CDT FRI AUG 28 2015

NOTE: "FAIR" INDICATES FEW OR NO CLOUDS BELOW 12,000 FEET WITH NO
       SIGNIFICANT WEATHER AND/OR OBSTRUCTIONS TO VISIBILITY.
       CURRENT SKY AND/OR WEATHER CONDITIONS ARE NOT AVAILABLE FOR
       CHILLICOTHE AND FARMINGTON.

MOZ001>031-035>038-043-044-053-054-290400-
...NORTHERN AND WESTERN MISSOURI...

CITY           SKY/WX    TMP DP  RH WIND       PRES   REMARKS
KANSAS CTY INT MOCLDY    73  67  81 S17       29.93R
KANSAS C DTWN  TSTM      72  70  93 S10       29.92F FOG
LEE`S SUMMIT   LGT RAIN  72  67  84 S7        29.96R
ST JOSEPH      MOCLDY    72  68  87 S6        29.92S
CHILLICOTHE      N/A     71  67  87 S6        29.95R
KIRKSVILLE     CLOUDY    69  65  86 S5        29.97R

$$
MOZ066>068-077>081-088>096-101>105-290400-
...SOUTHWEST MISSOURI...

CITY           SKY/WX    TMP DP  RH WIND       PRES   REMARKS
SPRINGFIELD    PTCLDY    73  60  63 S12G22    30.00R
JOPLIN         PTCLDY    73  65  75 S10       29.96S

$$
MOZ032>034-039>042-045>050-055>058-069>072-290400-
...CENTRAL MISSOURI...

CITY           SKY/WX    TMP DP  RH WIND       PRES   REMARKS
COLUMBIA       MOCLDY    71  64  78 SE7       29.99R
JEFFERSON CITY MOCLDY    73  63  70 E7        29.98R
ROLLA          MOCLDY    70  62  76 S12       30.00S
SEDALIA        CLOUDY    70  65  84 S7        29.98R
WHITEMAN AFB   MOCLDY    71  66  85 S5        29.95R
WARRENSBURG    CLOUDY    68  64  88 SE6       29.95F
OSAGE BEACH    MOCLDY    72  61  68 S5        29.99R

$$
MOZ051-052-059>065-290400-
...EAST CENTRAL MISSOURI...

CITY           SKY/WX    TMP DP  RH WIND       PRES   REMARKS
ST LOUIS INTL  CLOUDY    77  60  55 S7        30.03R
SPIRIT OF STL  CLOUDY    72  63  73 CALM      30.01R
ST CHARLES     CLOUDY    70  63  78 S5        30.01R

$$
MOZ072>076-082>087-097>100-106>115-290400-
...SOUTH CENTRAL AND SOUTHEAST MISSOURI...

CITY           SKY/WX    TMP DP  RH WIND       PRES   REMARKS
CAPE GIRARDEAU CLEAR     67  64  90 SE6       30.04R
FARMINGTON     CLOUDY    70  63  78 S5        30.06S
POPLAR BLUFF   MOCLDY    69  66  90 CALM      30.03R
WEST PLAINS    MOCLDY    70  60  70 S5        30.06R

$$



USA.gov is the U.S. government's official web portal to all federal, state and local government web resources and services.